Location: Theydon Bois
(51.6750°N, 0.1050°E)
Time: 05:44:58
(UTC+00:00)

Envisat - Pass Details

Date: 10 December 2019
Orbit: 764 x 766 km, 98.1° (Epoch: 20 January)

Event Time Altitude Azimuth Distance (km) Brightness Sun altitude
Rises 17:37:19 0° 161° (SSE) 3,223 6.2 -15.6°
Reaches altitude 10° 17:39:37 10° 161° (SSE) 2,301 5.5 -15.9°
Maximum altitude 17:44:42 85° 73° (ENE) 777 2.9 -16.7°
Drops below altitude 10° 17:49:49 10° 346° (NNW) 2,317 5.5 -17.4°
Sets 17:52:08 0° 346° (NNW) 3,248 6.2 -17.8°
